User: anonymous   Login
Location: Muenchen
(48.1800°N, 11.5800°E)
Time: 07:18:47
(UTC+02:00)
Language:

Cosmos 2233 Rocket - Orbit

View from above orbital plane
View from above orbital plane
View from above satellite
View from above satellite

Ground track
Ground track

The orbit data is extracted from the following two-line orbital elements,

1 22488U 93008B   18109.38513344 +.00000041 +00000-0 +25702-4 0  9999
2 22488 082.9457 210.5576 0026816 087.8139 336.9880 13.77722395266137
Epoch (UTC): 19 April 2018 09:14:35
Eccentricity: 0.0026816
inclination: 82.9457°
perigee height: 952 km
apogee height: 991 km
right ascension of ascending node: 210.5576°
argument of perigee: 87.8139°
revolutions per day: 13.77722395
mean anomaly at epoch: 336.9880°
orbit number at epoch: 26613

The dashed part of the orbit path shows where the satellite is in the earth's shadow,  

DLR